Skip Page Navigation
NASA JPL Caltech
NASA Logo - Jet Propulsion Laboratory + View the NASA Portal
+ Near-Earth Object (NEO) Program
Search JPL
JPL Home Earth Solar System Stars & Galaxies Technology
JPL Solar System Dynamics
BODIES ORBITS EPHEMERIDES TOOLS PHYSICAL DATA DISCOVERY FAQ SITE MAP
JPL Small-Body Database Browser
Search: [ help ]  
182294 (2001 KU76)
Classification: TransNeptunian Object          SPK-ID: 2182294
Ephemeris | Orbit Diagram | Orbital Elements | Physical Parameters | Discovery Circumstances ]

[ hide orbit diagram ]
Orbit Diagram
Note: Make sure you have Java enabled on your browser to see the applet. This applet is provided as a 3D orbit visualization tool. The applet was implemented using 2-body methods, and hence should not be used for determining accurate long-term trajectories (over several years or decades) or planetary encounter circumstances. For accurate long-term ephemerides, please instead use our Horizons system.
Orbit Viewer

Additional Notes: the orbits shown in the applet are color coded. The planets are white lines, and the asteroid/comet is a blue line. The bright white line indicates the portion of the orbit that is above the ecliptic plane, and the darker portion is below the ecliptic plane. Likewise for the asteroid/comet orbit, the light blue indicates the portion above the ecliptic plane, and the dark blue the portion below the ecliptic plane.

Orbit Viewer applet originally written and kindly provided by Osamu Ajiki (AstroArts), and further modified by Ron Baalke (JPL).


Orbital Elements at Epoch 2456400.5 (2013-Apr-18.0) TDB
Reference: JPL 7 (heliocentric ecliptic J2000)
 Element Value Uncertainty (1-sigma)   Units 
e .1594781600764081 0.00025399  
a 44.83733486948682 0.01755 AU
q 37.68675920177129 0.0077377 AU
i 10.66565670197232 0.00067592 deg
node 45.02607121655937 0.000323 deg
peri 205.0542210480488 0.1403 deg
M 350.5955974702073 0.10043 deg
tp 2459265.250613422260
(2021-Feb-19.75061342)
29.732 JED
period 109662.4923874618
300.24
64.385
0.1763
d
yr
n .003282799726346182 1.9274e-06 deg/d
Q 51.98791053720235 0.020349 AU
  Orbit Determination Parameters
   # obs. used (total)      29  
   data-arc span      2536 days (6.94 yr)  
   first obs. used      2001-05-24  
   last obs. used      2008-05-03  
   planetary ephem.      DE405  
   SB-pert. ephem.      SB405-CPV-2  
   condition code      4  
   fit RMS      .37359  
   data source      ORB  
   producer      Otto Matic  
   solution date      2011-Sep-14 19:24:05  

Additional Information
 Earth MOID = 36.6763 AU 
 T_jup = 5.812 
[ show covariance matrix ]

Ephemeris | Orbit Diagram | Orbital Elements | Physical Parameters | Discovery Circumstances ]

Physical Parameter Table
Parameter Symbol Value Units Sigma Reference Notes
absolute magnitude H 6.5662 mag .44274 7 autocmod 2.5a

182294 (2001 KU76)          Discovered 2001-May-24 by Buie, M. W. at Cerro Tololo (807)
Reference: 20080420/Numbers.arcLast Updated: 2008-04-23
Ephemeris | Orbit Diagram | Orbital Elements | Physical Parameters | Discovery Circumstances ]
ABOUT SSD CREDITS/AWARDS PRIVACY/COPYRIGHT GLOSSARY LINKS
FirstGov 2013-May-26 07:10 UT
(server date/time)  
NASA Home Page
Site Manager:   Donald K. Yeomans
Webmaster  Alan B. Chamberlin